Regional Weather Roundup
Issued by NWS

Home | Current Version | Previous Version | Text Only | Print | Product List | Glossary Off
Versions: 1 2 3 4 5 6 7 8 9 10 11 12 13 14 15 16 17 18 19 20 21 22 23 24 25 26 27 28 29 30 31 32 33 34 35 36 37 38 39 40 41 42 43 44 45 46 47 48 49 50

451
ASUS45 KBOI 290010
RWRID

IDAHO REGIONAL WEATHER ROUNDUP
NATIONAL WEATHER SERVICE BOISE ID
600 PM MDT THU JUL 28 2016

NOTE: "FAIR" INDICATES FEW OR NO CLOUDS BELOW 12000 FEET
WITH NO SIGNIFICANT WEATHER AND/OR OBSTRUCTIONS TO VISIBILITY

IDZ012-014-290100-
SOUTHWEST IDAHO


CITY           SKY/WX    TMP DP  RH WIND       PRES   REMARKS
BOISE          SUNNY     98  37  12 NW9G22    29.97F HX  93
CALDWELL       SUNNY     98  49  18 NW9       29.95F HX  95
$$

IDZ016-017-290100-
SOUTHCENTRAL IDAHO


CITY           SKY/WX    TMP DP  RH WIND       PRES   REMARKS
BURLEY         SUNNY     90  42  18 W12       30.04F
JEROME         SUNNY     94  39  14 SW10      30.04F HX  90
TWIN FALLS     SUNNY     94  37  13 NW7       30.06F
$$

IDZ019>023-290100-
SOUTHEAST IDAHO


CITY           SKY/WX    TMP DP  RH WIND       PRES   REMARKS
IDAHO FALLS    SUNNY     91  39  16 SE10      30.08F
POCATELLO      SUNNY     94  33  11 W14       30.06F
REXBURG        SUNNY     88  35  15 S5        30.09F
$$

IDZ006-010-011-018-031-032-290100-
CENTRAL IDAHO MOUNTAINS


CITY           SKY/WX    TMP DP  RH WIND       PRES   REMARKS
MCCALL         SUNNY     88  34  14 W8        30.16S
HAILEY         SUNNY     90  37  15 SW8       30.11F
STANLEY          N/A     86  29  12 NW8       30.24F
SALMON         SUNNY     91  39  16 N3        30.00F
CHALLIS        SUNNY     94  29  10 NE7       30.07F
$$

IDZ002-004-006-007-026-290100-
NORTHERN IDAHO


CITY           SKY/WX    TMP DP  RH WIND       PRES   REMARKS
LEWISTON       SUNNY     99  43  14 W3        29.94F HX  95
LOWELL           N/A     95  57  27 CALM      29.93F HX  94
COEUR D`ALENE  SUNNY     91  50  24 NW7       29.99F
MULLAN PASS    SUNNY     77  47  34 VRB3      30.27F
$$




USA.gov is the U.S. government's official web portal to all federal, state and local government web resources and services.